This is the latest recevied weather packets stored in our database for station/object WX4HP-13. If no packets are shown the sender has not sent any weather packets the latest 10 day(s).
| Time | Temp. | Humidity | Pressure | Rain* | Wind** | Luminosity | Snow |
|---|---|---|---|---|---|---|---|
| 1777898097 | 12.78° C | 76% | 1017.6 hPa | 0 mm | - | - | - |
| 1777897796 | 12.22° C | 78% | 1017.6 hPa | 0 mm | - | - | - |
| 1777897497 | 11.67° C | 79% | 1017.6 hPa | 0 mm | - | - | - |
| 1777897196 | 11.11° C | 81% | 1017.8 hPa | 0 mm | - | - | - |
| 1777896896 | 10.56° C | 84% | 1017.8 hPa | 0 mm | - | - | - |
| 1777896597 | 9.44° C | 88% | 1018 hPa | 0 mm | - | - | - |
| 1777896297 | 8.89° C | 90% | 1017.9 hPa | 0 mm | - | - | - |
| 1777895996 | 8.33° C | 92% | 1018 hPa | 0 mm | - | - | - |
| 1777895695 | 8.33° C | 95% | 1018 hPa | 0 mm | - | - | - |
| 1777895397 | 7.22° C | 97% | 1017.9 hPa | 0 mm | - | - | - |
| 1777895095 | 6.67° C | 97% | 1018 hPa | 0 mm | - | - | - |
| 1777894796 | 6.67° C | 97% | 1018.1 hPa | 0 mm | - | - | - |
| 1777894497 | 6.11° C | 97% | 1017.9 hPa | 0 mm | - | - | - |
| 1777894202 | 5.56° C | 97% | 1018.1 hPa | 0 mm | - | - | - |
| 1777893896 | 5.56° C | 97% | 1018 hPa | 0 mm | - | - | - |
| 1777893597 | 5.56° C | 97% | 1018 hPa | 0 mm | - | - | - |
| 1777893296 | 5° C | 97% | 1018 hPa | 0 mm | - | - | - |
| 1777892996 | 5° C | 97% | 1018 hPa | 0 mm | - | - | - |
| 1777892396 | 5° C | 97% | 1017.9 hPa | 0 mm | - | - | - |
| 1777892097 | 5° C | 97% | 1017.9 hPa | 0 mm | - | - | - |
| 1777891796 | 5° C | 97% | 1018 hPa | 0 mm | - | - | - |
| 1777891495 | 5° C | 97% | 1017.8 hPa | 0 mm | - | - | - |
| 1777891195 | 5° C | 97% | 1018 hPa | 0 mm | - | - | - |
| 1777890895 | 5° C | 97% | 1018 hPa | 0 mm | - | - | - |
| 1777890595 | 5° C | 97% | 1018 hPa | 0 mm | - | - | - |
* Rain latest hour (hover to see other rain measurements)
** Current wind speed in m/s (hover to see current wind gust speed)